www.pogodaiklimat.ru

Погода и климат >> Архив погоды >> Россия >> Московская область >> Красногорск


ПОГОДА в Красногорске

АРХИВ ПОГОДЫ в Красногорске

Время (UTC), дата Ветер
(напр.,м/с)
 
Видим.   Явления Облачность Т
(С)
Тd
(С)
f
(%)
Тe
(С)
Тes
(С)
Комфортность P
(гПа)
Po
(гПа)
Тmin
(С)
Tmax
(С)
R
(мм)
R24
(мм)
S
(см)
15 14.02 ЮВ 2 н/о н/о -7.4 -10.3 80 -12 -12 по сезону 1032.0 1014.0
18 14.02 В 1 н/о н/о -7.5 -10.2 81 -10 -10 по сезону 1032.4 1014.4 -4.6
21 14.02 ЮВ 2 н/о н/о -8.0 -11.3 77 -12 -12 по сезону 1033.0 1015.0
00 15.02 В 2 н/о н/о -8.1 -10.0 86 -13 -13 по сезону 1033.6 1015.5
03 15.02 штиль 0 н/о н/о -9.8 -11.3 89 -10 -10 по сезону 1034.1 1015.9 -9.8
06 15.02 В 1 н/о н/о -9.2 -10.8 88 -12 -12 по сезону 1034.6 1016.4 -11.0
09 15.02 В 2 н/о н/о -7.4 -10.3 80 -12 -12 по сезону 1035.5 1017.4
12 15.02 В 2 н/о н/о -6.1 -9.5 77 -10 -10 по сезону 1035.3 1017.3
15 15.02 ЮВ 2 н/о н/о -7.3 -9.8 82 -12 -12 по сезону 1035.6 1017.6
18 15.02 ЮВ 2 н/о н/о -7.3 -9.5 84 -12 -12 по сезону 1035.4 1017.3 -6.0
21 15.02 ЮВ 2 н/о н/о -7.2 -9.5 84 -12 -12 по сезону 1035.0 1017.0
00 16.02 ЮВ 1 н/о н/о -6.9 -9.2 84 -9 -9 по сезону 1034.7 1016.7
03 16.02 Ю 2 н/о н/о -6.7 -8.6 86 -11 -11 по сезону 1034.0 1016.0 -7.4
06 16.02 Ю 1 н/о н/о -6.3 -7.8 89 -9 -9 по сезону 1033.6 1015.7 -7.3
09 16.02 Ю 1 н/о н/о -4.7 -7.2 83 -7 -7 по сезону 1033.1 1015.2
12 16.02 Ю 2 н/о н/о -4.5 -7.0 83 -9 -9 по сезону 1032.3 1014.5
15 16.02 В 1 н/о н/о -4.2 -5.8 89 -7 -7 по сезону 1031.4 1013.6
18 16.02 ЮВ 3 н/о н/о -3.3 -4.6 91 -9 -9 по сезону 1030.4 1012.7 -3.3
21 16.02 ЮВ 2 н/о н/о -3.8 -5.3 89 -8 -8 по сезону 1029.9 1012.2
03 17.02 ЮВ 2 н/о н/о -4.5 -6.8 84 -9 -9 по сезону 1027.9 1010.2 -4.6
06 17.02 ЮВ 2 н/о н/о -4.7 -6.6 87 -9 -9 по сезону 1027.2 1009.5 -4.9
09 17.02 Ю 2 н/о н/о -4.0 -6.8 81 -8 -8 по сезону 1026.0 1008.4
12 17.02 Ю 2 н/о н/о -3.6 -6.2 82 -8 -8 по сезону 1025.0 1007.4
15 17.02 ЮВ 2 н/о н/о -3.9 -6.0 85 -8 -8 по сезону 1024.0 1006.4
18 17.02 ЮВ 2 н/о н/о -4.9 -6.5 89 -9 -9 по сезону 1023.7 1006.0 -3.5
21 17.02 В 2 н/о н/о -5.3 -6.8 89 -10 -10 по сезону 1022.8 1005.1
00 18.02 В 2 н/о н/о -5.5 -7.0 89 -10 -10 по сезону 1021.8 1004.1
03 18.02 ЮВ 1 н/о н/о -5.9 -7.0 92 -8 -8 по сезону 1020.4 1002.7 -5.9
06 18.02 ЮВ 1 н/о н/о -5.9 -7.0 92 -8 -8 по сезону 1020.3 1002.6 -6.7
09 18.02 штиль 0 н/о н/о -3.2 -6.3 79 -4 -4 тепло 1019.4 1001.9
12 18.02 В 1 н/о н/о -2.7 -5.5 81 -5 -5 по сезону 1019.0 1001.5
15 18.02 штиль 0 н/о н/о -3.3 -5.3 86 -4 -4 тепло 1018.5 1001.0
18 18.02 штиль 0 н/о н/о -3.6 -4.8 91 -5 -5 тепло 1018.1 1000.6 -2.4
21 18.02 штиль 0 н/о н/о -3.3 -4.2 93 -5 -5 тепло 1017.4 999.9
00 19.02 штиль 0 н/о н/о -3.4 -4.3 93 -5 -5 тепло 1016.7 999.2
03 19.02 штиль 0 н/о н/о -3.6 -4.5 93 -5 -5 тепло 1015.9 998.5 -3.7
06 19.02 штиль 0 н/о н/о -3.3 -3.8 96 -5 -5 тепло 1016.0 998.6 -3.8
09 19.02 СЗ 2 н/о н/о -2.2 -5.0 81 -6 -6 по сезону 1016.5 999.1
12 19.02 З 1 н/о н/о -2.4 -6.6 73 -4 -4 тепло 1017.0 999.6
15 19.02 СЗ 2 н/о н/о -3.6 -7.2 76 -8 -8 по сезону 1018.0 1000.5
18 19.02 З 2 н/о н/о -4.4 -7.3 80 -9 -9 по сезону 1018.4 1000.9 -2.0
21 19.02 З 1 н/о н/о -5.6 -7.2 88 -8 -8 по сезону 1018.0 1000.4
00 20.02 З 1 н/о н/о -6.4 -8.3 86 -9 -9 по сезону 1018.3 1000.6

 

Местоположение метеостанции Красногорск (Московская область, Россия): широта 55.81 долгота 37.34 высота над уровнем моря 136 м.

В архиве по умолчанию представлена погода в Красногорске за последнюю неделю. Архивные данные за месяц целиком и за предыдущие месяцы, начиная с января 2011 года, Вы можете получить, выбрав интересующий диапазон дат из раскрывающегося списка и нажав кнопку "Ввод!".

Внимание! Время в таблицах - всемирное. Для получения местного времени необходимо прибавить поправку, которая в Красногорске равна 3 ч.

Смотрите также архив погоды в соседних городах и на ближайших метеорологических станциях:

Погода в Москве (Строгино) (город Москва, Россия) (4 км)
Погода в Москве (Тушино) (город Москва, Россия) (8 км)
Погода в Немчиновке (город Москва, Россия) (12 км)
Погода в Подмосковной (Московская область, Россия) (13 км)
Погода в Долгопрудном (Московская область, Россия) (17 км)
Погода в Москве (город Москва, Россия) (18 км)
Погода в Шереметьево (Московская область, Россия) (18 км)
Погода в Москве (Балчуг) (город Москва, Россия) (19 км)
Погода в Внуково (Московская область, Россия) (24 км)
Погода в Толстопальцево (город Москва, Россия) (26 км)

Пояснения к столбцам:

Ветер - указаны скорость ветра в м/с - средняя за 10 мин, порывы в срок и между сроками (в фигурных скобках) и направление, откуда дует ветер: С - северный, СВ - северо-восточный, В - восточный, ЮВ - юго-восточный, Ю - южный, ЮЗ - юго-западный, З - западный, СЗ - северо-западный.
Видимость - горизонтальная дальность видимости в метрах или километрах. При видимости от 1 до 10 км при отсутствии осадков обычно наблюдается дымка, при ухудшении видимости до 1 км и менее - туман. В сухую погоду видимость может ухудшаться дымом, пылью или мглою.
Явления - указаны атмосферные явления, наблюдавшиеся в срок или в последний час перед сроком; фигурными скобками обозначены явления, наблюдавшиеся между сроками (за 1-3 часа до срока); квадратными скобками обозначены град или гололедные отложения с указанием их диаметра в мм.
Облачность - указаны через наклонную черту общая и нижняя облачность в баллах и высота нижней границы облаков в метрах; квадратными скобками обозначены формы облаков: Ci - перистые, Cs - перисто-слоистые, Cc - перисто-кучевые, Ac - высококучевые, As - высокослоистые, Sc - слоисто-кучевые, Ns - слоисто-дождевые, Cu - кучевые, Cb - кучево-дождевые. Подробнее классификацию облаков см. в Атласе облаков (PDF).
T - Температура воздуха - температура, измеренная на высоте 2 м над землей.
Td - Температура точки росы - температура, при понижении до которой содержащийся в воздухе водяной пар достигнет насыщения.
f - Относительная влажность воздуха - влажноcть воздуха, измеренная на высоте 2 м над землей.
Te - Эффективная температура - температура, которую ощущает одетый по сезону человек в тени. Характеристика душности погоды. При расчете учитывается влияние влажности воздуха и скорости ветра на теплоощущения человека.
Tes - Эффективная температура на солнце - температура, которую ощущает человек, с поправкой на солнечный нагрев. Характеристика знойности погоды. Зависит от высоты солнца над горизонтом, облачности и скорости ветра. Ночью, в пасмурную погоду, а также при ветре 12 м/с и более поправка равна нулю.
P - Атмосферное давление - приведенное к уровню моря атмосферное давление.
Po - Атмосферное давление - измеренное на уровне метеостанции атмосферное давление.
Tmin - Минимальная температура - минимум температуры воздуха на высоте 2 м над землей.
Tmax - Максимальная температура - максимум температуры воздуха на высоте 2 м над землей.
R - Количество осадков - Количество выпавших осадков за период времени, мм. При наведении курсора мыши на число - период времени, за который выпало указанное количество осадков.
R24 - Количество осадков - Количество выпавших осадков за 24 часа, мм.
S - Снежный покров - Высота снежного покрова, см. При наведении курсора мыши на число - состояние снежного покрова и степень покрытия местности в баллах.